Zurück zum Katalog

STARLINK-34257

AktivKommunikationVLEO
NORAD 65225·PAYLOAD·🇺🇸 United States

Gestartet Aug 14, 2025 von Cape Canaveral Space Force Station

Loading…

Nächste Überflüge (nächste 24 Stunden)

TLE

AktuellSource: CelesTrak SupGP

Epoche: Sep 14, 2026, 21:21 UTC

1 65225C 25176AD  26257.89006944 -.00011672  00000+0 -34505-3 0  2578
2 65225  53.1593 350.0518 0001157  82.9769 228.0539 15.34379499    19

Verfolge STARLINK-34257 in Echtzeit mit AllMySat

Download on the App Store